Weather History for Omaha Millard, NE

Change the Weather History Date:

Sunday, July 14, 2013

  Actual Average (KOMA) Record (KOMA)
Temperature  
Mean Temperature 78 °F 77 °F  
Max Temperature 85 °F 88 °F 109 °F (1936)
Min Temperature 70 °F 67 °F 50 °F (1967)
Degree Days  
Heating Degree Days 0 0  
Month to date heating degree days 0  
Since 1 June heating degree days 17  
Since 1 July heating degree days 0  
Cooling Degree Days 12 12  
Month to date cooling degree days 164  
Year to date cooling degree days 476  
Since 1 June cooling degree days 394  
Growing Degree Days 28 (Base 50)    
Moisture  
Dew Point 62 °F    
Average Humidity 59    
Maximum Humidity 76    
Minimum Humidity 39    
Precipitation  
Precipitation 0.00 in 0.12 in 1.76 in (1907)
Month to date precipitation 1.73  
Year to date precipitation 17.19  
Snow  
Snow 0.00 in 0.00 in - ()
Month to date snowfall 0.0  
Since 1 July snowfall 0.0  
Snow Depth -    
Sea Level Pressure  
Sea Level Pressure 30.06 in    
Wind  
Wind Speed 11 mph (SE)    
Max Wind Speed 17 mph    
Max Gust Speed 23 mph    
Visibility 10 miles    
Events Rain    
T = Trace of Precipitation, MM = Missing Value Source: NWS Daily Summary

Daily Weather History Graph

Daily Weather History Graph

Search for Another Location

Airport:

Trip Planner

Search our weather history database for the weather conditions in past years. The results will help you decide how hot, cold, wet, or windy it might be!

Date:

Astronomy

Jul. 14, 2013 Rise Set
Actual Time 6:04 AM CDT 8:56 PM CDT
Civil Twilight 5:31 AM CDT 9:28 PM CDT
Nautical Twilight 4:49 AM CDT 10:10 PM CDT
Astronomical Twilight 4:02 AM CDT 10:57 PM CDT
Moon 12:26 PM CDT (7/14) No Moon Set
Length of Visible Light 15h 57m
Length of Day
14h 52m
Waxing Crescent, 35% of the Moon is Illuminated
Jul 14
Waxing Crescent
Jul 15
First Quarter
Jul 22
Full
Jul 29
Last Quarter
Aug 6
New

Hourly Weather History & Observations

Time (CDT) Temp. Heat Index Dew Point Humidity Pressure Visibility Wind Dir Wind Speed Gust Speed Precip Events Conditions
12:15 AM 77.2 °F - 66.2 °F 69% 30.00 in 10.0 mi SE 17.3 mph - N/A   Clear
12:35 AM 76.6 °F - 65.5 °F 68% 30.00 in 10.0 mi SE 12.7 mph - N/A   Clear
12:55 AM 76.1 °F - 65.5 °F 70% 30.00 in 10.0 mi SE 10.4 mph - N/A   Clear
1:15 AM 75.6 °F - 65.3 °F 70% 30.01 in 10.0 mi SE 10.4 mph - N/A   Clear
1:35 AM 75.4 °F - 64.8 °F 69% 30.02 in 10.0 mi SE 11.5 mph - N/A   Clear
1:55 AM 75.0 °F - 64.4 °F 69% 30.01 in 10.0 mi SE 11.5 mph - N/A   Clear
2:15 AM 74.8 °F - 63.9 °F 69% 30.01 in 10.0 mi SE 10.4 mph - N/A   Clear
2:35 AM 74.5 °F - 63.3 °F 68% 30.01 in 10.0 mi SE 9.2 mph - N/A   Clear
2:55 AM 74.3 °F - 63.0 °F 68% 30.01 in 10.0 mi SE 6.9 mph - N/A   Clear
3:15 AM 73.6 °F - 63.0 °F 69% 30.02 in 10.0 mi SE 6.9 mph - N/A Rain Light Rain
3:35 AM 72.9 °F - 62.6 °F 70% 30.00 in 10.0 mi SE 11.5 mph - N/A   Clear
3:55 AM 72.9 °F - 62.6 °F 70% 30.01 in 10.0 mi SE 11.5 mph - N/A   Clear
4:15 AM 72.7 °F - 62.1 °F 69% 30.01 in 10.0 mi SE 9.2 mph - N/A   Clear
4:35 AM 72.5 °F - 62.1 °F 70% 30.02 in 10.0 mi SE 10.4 mph - N/A   Clear
4:55 AM 72.5 °F - 61.9 °F 69% 30.02 in 10.0 mi SE 10.4 mph - N/A   Clear
5:15 AM 72.1 °F - 62.1 °F 70% 30.02 in 10.0 mi SE 8.1 mph - N/A   Clear
5:35 AM 71.8 °F - 61.7 °F 70% 30.01 in 10.0 mi SE 11.5 mph - N/A   Clear
5:55 AM 72.0 °F - 61.0 °F 68% 30.02 in 10.0 mi ESE 8.1 mph - N/A   Clear
6:15 AM 71.6 °F - 60.1 °F 67% 30.02 in 10.0 mi SE 11.5 mph - N/A   Clear
6:35 AM 71.6 °F - 59.0 °F 64% 30.03 in 10.0 mi SE 10.4 mph 16.1 mph N/A   Clear
6:55 AM 70.9 °F - 60.1 °F 69% 30.04 in 10.0 mi SE 10.4 mph - N/A   Mostly Cloudy
7:15 AM 70.9 °F - 60.8 °F 70% 30.04 in 10.0 mi SSE 5.8 mph - N/A   Mostly Cloudy
7:35 AM 70.7 °F - 61.2 °F 72% 30.04 in 10.0 mi ESE 6.9 mph - N/A   Overcast
7:55 AM 71.4 °F - 62.2 °F 73% 30.04 in 10.0 mi SE 9.2 mph - N/A   Scattered Clouds
8:15 AM 73.0 °F - 62.8 °F 70% 30.03 in 10.0 mi SE 9.2 mph - N/A   Clear
8:35 AM 73.4 °F - 62.6 °F 69% 30.05 in 10.0 mi SE 11.5 mph 19.6 mph N/A   Clear
8:55 AM 72.9 °F - 63.0 °F 71% 30.05 in 10.0 mi ESE 10.4 mph - N/A   Clear
9:15 AM 74.5 °F - 63.5 °F 68% 30.05 in 10.0 mi SE 11.5 mph - N/A   Mostly Cloudy
9:35 AM 75.9 °F - 63.5 °F 65% 30.05 in 10.0 mi SE 12.7 mph - N/A   Scattered Clouds
9:55 AM 76.6 °F - 63.0 °F 62% 30.06 in 10.0 mi SE 15.0 mph 19.6 mph N/A   Clear
10:15 AM 78.1 °F - 63.7 °F 61% 30.06 in 10.0 mi SE 12.7 mph - N/A   Clear
10:35 AM 79.3 °F - 63.0 °F 57% 30.07 in 10.0 mi SSE 15.0 mph 18.4 mph N/A   Clear
10:55 AM 79.2 °F - 62.8 °F 57% 30.07 in 10.0 mi SE 13.8 mph 19.6 mph N/A   Clear
11:15 AM 79.7 °F - 62.6 °F 56% 30.07 in 10.0 mi SE 13.8 mph 23.0 mph N/A   Clear
11:35 AM 80.6 °F 81.7 °F 61.9 °F 53% 30.08 in 10.0 mi SE 16.1 mph - N/A   Clear
11:55 AM 81.1 °F 82.0 °F 61.5 °F 51% 30.08 in 10.0 mi SE 10.4 mph 21.9 mph N/A   Clear
12:15 PM 81.5 °F 82.1 °F 60.4 °F 49% 30.07 in 10.0 mi SE 11.5 mph - N/A   Clear
12:35 PM 82.0 °F 82.2 °F 59.2 °F 46% 30.08 in 10.0 mi SE 13.8 mph 19.6 mph N/A   Clear
12:55 PM 82.6 °F 82.6 °F 59.4 °F 45% 30.08 in 10.0 mi SE 15.0 mph 20.7 mph N/A   Scattered Clouds
1:15 PM 83.3 °F 83.2 °F 59.4 °F 44% 30.08 in 10.0 mi SE 16.1 mph 19.6 mph N/A   Scattered Clouds
1:35 PM 83.5 °F 83.4 °F 59.7 °F 44% 30.08 in 10.0 mi ESE 10.4 mph 18.4 mph N/A   Clear
1:55 PM 84.4 °F 84.0 °F 59.0 °F 42% 30.08 in 10.0 mi SE 12.7 mph 19.6 mph N/A   Clear
2:15 PM 84.4 °F 83.5 °F 57.0 °F 39% 30.09 in 10.0 mi SE 9.2 mph - N/A   Clear
2:35 PM 84.7 °F 84.6 °F 60.3 °F 43% 30.08 in 10.0 mi SSE 11.5 mph - N/A   Clear
2:55 PM 84.4 °F 84.2 °F 59.7 °F 43% 30.08 in 10.0 mi SSE 12.7 mph 18.4 mph N/A   Clear
3:15 PM 85.3 °F 85.9 °F 62.2 °F 46% 30.07 in 10.0 mi SE 8.1 mph 19.6 mph N/A   Clear
3:35 PM 85.5 °F 86.1 °F 62.2 °F 46% 30.07 in 10.0 mi SE 15.0 mph 18.4 mph N/A   Clear
3:55 PM 85.1 °F 85.2 °F 61.0 °F 44% 30.07 in 10.0 mi SE 12.7 mph 17.3 mph N/A   Clear
4:15 PM 85.3 °F 85.4 °F 61.0 °F 44% 30.07 in 10.0 mi SSE 9.2 mph 17.3 mph N/A   Clear
4:35 PM 85.3 °F 85.4 °F 61.0 °F 44% 30.07 in 10.0 mi SE 11.5 mph 18.4 mph N/A   Clear
4:55 PM 85.3 °F 85.2 °F 60.3 °F 43% 30.07 in 10.0 mi SSE 10.4 mph - N/A   Clear
5:15 PM 85.1 °F 85.0 °F 60.4 °F 43% 30.07 in 10.0 mi SSE 9.2 mph 17.3 mph N/A   Clear
5:35 PM 85.1 °F 85.4 °F 61.5 °F 45% 30.07 in 10.0 mi SE 13.8 mph 18.4 mph N/A   Clear
5:55 PM 84.9 °F 85.2 °F 61.3 °F 45% 30.07 in 10.0 mi SE 13.8 mph - N/A   Clear
6:15 PM 84.6 °F 84.8 °F 61.2 °F 45% 30.06 in 10.0 mi SE 11.5 mph - N/A   Clear
6:35 PM 84.2 °F 84.4 °F 60.8 °F 45% 30.06 in 10.0 mi SSE 9.2 mph 17.3 mph N/A   Clear
6:55 PM 84.2 °F 84.4 °F 60.8 °F 45% 30.06 in 10.0 mi SSE 10.4 mph - N/A   Clear
7:15 PM 83.7 °F 83.9 °F 61.0 °F 46% 30.07 in 10.0 mi SE 12.7 mph - N/A   Clear
7:35 PM 82.8 °F 83.1 °F 60.6 °F 47% 30.07 in 10.0 mi SE 8.1 mph - N/A   Clear
7:55 PM 81.7 °F 82.6 °F 61.7 °F 51% 30.08 in 10.0 mi SE 6.9 mph - N/A   Clear
8:15 PM 80.6 °F 81.7 °F 62.2 °F 53% 30.08 in 10.0 mi SE 4.6 mph - N/A   Clear
8:35 PM 80.6 °F 81.6 °F 61.7 °F 52% 30.09 in 10.0 mi SE 3.5 mph - N/A   Clear
8:55 PM 79.2 °F - 62.1 °F 56% 30.09 in 10.0 mi ESE 3.5 mph - N/A   Clear
9:15 PM 77.9 °F - 62.6 °F 59% 30.10 in 10.0 mi Calm Calm - N/A   Clear
9:35 PM 76.1 °F - 63.0 °F 64% 30.11 in 10.0 mi Calm Calm - N/A   Clear
9:55 PM 75.7 °F - 62.6 °F 64% 30.12 in 10.0 mi Calm Calm - N/A   Clear
10:15 PM 74.8 °F - 62.2 °F 65% 30.14 in 10.0 mi Calm Calm - N/A   Clear
10:35 PM 73.4 °F - 62.6 °F 69% 30.14 in 10.0 mi Calm Calm - N/A   Clear
10:55 PM 72.9 °F - 62.6 °F 70% 30.15 in 10.0 mi Calm Calm - N/A   Clear
11:15 PM 72.7 °F - 63.0 °F 71% 30.15 in 10.0 mi Calm Calm - N/A   Clear
11:35 PM 71.8 °F - 63.3 °F 75% 30.16 in 10.0 mi Calm Calm - N/A   Clear
11:55 PM 71.4 °F - 63.5 °F 76% 30.16 in 10.0 mi Calm Calm - N/A   Clear